Flag for Switzerland Weather past 2 weeks in Lugano, Switzerland

Now
37 °F

Clear.


Feels Like: 31 °F
Forecast: 31 / 45 °F
Wind: 8 mph from North

Location: Lugano Airport

Current Time: Dec 29, 2014 at 3:34:51 AM

Latest Report: Dec 29, 2014 at 2:50 AM


Visibility: 10 mi

Pressure: 30.15 "Hg

Humidity: 23%

Dew point: 3 °F

Location of LuganoLocation

Historic Weather in Lugano — Graph

°F

Lugano temperature yesterday

Maximum temperature yesterday: 48 °F (at 12:50 PM)
Minimum temperature yesterday: 27 °F (at 12:20 AM)
Average temperature yesterday: 38 °F

Past Weeks' High & Low Weather Summary

 TemperatureHumidityPressure
High57 °F (Dec 20, 2:50 PM)100% (Dec 14, 2:20 AM)30.48 "Hg (Dec 14, 2:20 AM)
Low27 °F (Dec 27, 8:50 PM)16% (Dec 28, 10:20 PM)29.50 "Hg (Dec 28, 1:50 AM)
Average41 °F81%30.12 "Hg
* Reported Dec 14 2:20 AM — Dec 29 2:20 AM, Lugano, Weather by CustomWeather, © 2014

Note: Actual official high and low records may vary slightly from our data, if they occured in-between our weather recording intervals... More about our weather records

Advertising

Lugano weather history for previous 24 hours

 ConditionsComfort  
Time TempWeatherWind HumidityBarometerVisibility
2:20 AM
Dec 29
36 °FClear.2 mph30%30.12 "Hg10 mi
1:50 AM37 °FClear.3 mph28%30.09 "HgN/A
1:20 AM37 °FClear.8 mph28%30.09 "HgN/A
12:50 AM39 °FClear.10 mph22%30.07 "Hg10 mi
12:20 AM41 °FQuite cool.12 mph19%30.07 "HgN/A
11:50 PM
Dec 28
41 °FQuite cool.13 mph20%30.04 "HgN/A
11:20 PM41 °FClear.18 mph20%30.04 "Hg10 mi
10:20 PM43 °FPassing clouds.17 mph16%29.98 "HgN/A
9:50 PM43 °FClear.21 mph21%29.95 "Hg10 mi
9:20 PM43 °FClear.17 mph22%29.95 "Hg10 mi
8:50 PM43 °FPassing clouds.15 mph26%29.92 "HgN/A
8:20 PM43 °FPassing clouds.16 mph26%29.89 "HgN/A
7:50 PM43 °FClear.15 mph29%29.86 "Hg10 mi
7:20 PM45 °FPassing clouds.14 mph27%29.86 "HgN/A
6:50 PM45 °FClear.15 mph27%29.83 "Hg10 mi
6:20 PM45 °FPassing clouds.15 mph27%29.80 "HgN/A
5:50 PM45 °FPassing clouds.14 mph27%29.77 "HgN/A
5:20 PM46 °FPassing clouds.14 mph25%29.74 "HgN/A
4:50 PM46 °FPassing clouds.15 mph25%29.74 "HgN/A
4:20 PM46 °FPassing clouds.16 mph25%29.71 "HgN/A
3:50 PM46 °FPassing clouds.21 mph23%29.68 "HgN/A
3:20 PM48 °FSunny.15 mph25%29.65 "Hg10 mi
2:50 PM46 °FPassing clouds.17 mph25%29.65 "HgN/A
2:20 PM48 °FSunny.18 mph25%29.62 "Hg10 mi
1:50 PM48 °FPassing clouds.18 mph25%29.62 "HgN/A
1:20 PM48 °FPassing clouds.16 mph25%29.59 "HgN/A
12:50 PM48 °FPassing clouds.16 mph27%29.59 "HgN/A
12:20 PM46 °FPassing clouds.12 mph29%29.59 "HgN/A
11:50 AM46 °FPassing clouds.9 mph29%29.59 "HgN/A
11:20 AM45 °FPassing clouds.9 mph37%29.59 "HgN/A
10:50 AM41 °FPassing clouds.5 mph49%29.56 "HgN/A
10:20 AM37 °FSunny.1 mph81%29.56 "Hg10 mi
9:50 AM36 °FSunny.2 mph81%29.56 "Hg10 mi
9:20 AM30 °FSunny.1 mph93%29.56 "Hg10 mi
8:50 AM28 °FSunny.2 mph93%29.53 "Hg10 mi
8:20 AM30 °FPartly sunny.1 mph86%29.53 "HgN/A
7:50 AM30 °FPassing clouds.1 mph86%29.53 "HgN/A
7:20 AM32 °FClear.2 mph87%29.50 "Hg10 mi
6:50 AM30 °FClear.1 mph93%29.50 "Hg10 mi
6:20 AM30 °FClear.1 mph93%29.50 "Hg10 mi
5:50 AM30 °FChilly.2 mph93%29.50 "HgN/A
5:20 AM28 °FClear.1 mph93%29.50 "HgN/A
4:20 AM28 °FChilly.1 mph93%29.50 "HgN/A
3:50 AM27 °FClear.2 mph93%29.50 "Hg10 mi
3:20 AM27 °FChilly.2 mph93%29.50 "HgN/A
Weather by CustomWeather, © 2014

See weather overviewHow to use our weather pages